Regional Weather Roundup
Issued by NWS

Home | Current Version | Previous Version | Graphics & Text | Print | Product List | Glossary On
Versions: 1 2 3 4 5 6 7 8 9 10 11 12 13 14 15 16 17 18 19 20 21 22 23 24 25 26 27 28 29 30 31 32 33 34 35 36 37 38 39 40 41 42 43 44 45 46 47 48 49 50
000
ASUS43 KFSD 012310
RWRSD

WEATHER ROUNDUP FOR SOUTH DAKOTA
NATIONAL WEATHER SERVICE SIOUX FALLS SD
600 PM CDT WED JUL 01 2015

NOTE: "FAIR" INDICATES FEW OR NO CLOUDS BELOW 12,000 FEET WITH NO
SIGNIFICANT WEATHER AND/OR OBSTRUCTIONS TO VISIBILITY.


SDZ001>005-009-010-012>017-020000-
NORTHWEST AND NORTH CENTRAL SOUTH DAKOTA

CITY           SKY/WX    TMP DP  RH WIND       PRES   REMARKS
BUFFALO          N/A     79  60  52 N8        29.93F
FAITH            N/A     78  62  57 N7        29.97S
MOBRIDGE       PTSUNNY   79  64  60 VRB5      29.91S
$$

SDZ012>016-024>037-041>051-057-063-072>074-020000-
SOUTHWEST AND SOUTH CENTRAL SOUTH DAKOTA

CITY           SKY/WX    TMP DP  RH WIND       PRES   REMARKS
RAPID CTY ARPT SUNNY     82  66  58 N18       29.97S
PIERRE         MOSUNNY   80  66  62 VRB6      29.89S
CUSTER         MOSUNNY   74  60  61 E6        30.13F HAZE
ELLSWORTH AFB  SUNNY     83  65  54 NE14      29.98F
PHILIP         MOSUNNY   81  65  58 NE12      29.94S
PINE RIDGE     SUNNY     85  59  41 N10       29.99S
SPEARFISH      FAIR      79  57  47 N13       30.05S
WINNER         FAIR      84  65  52 NE10      29.90F
$$

SDZ004>011-016>023-039-040-020000-
NORTHEAST SOUTH DAKOTA

CITY           SKY/WX    TMP DP  RH WIND       PRES   REMARKS
ABERDEEN       PTSUNNY   75  66  73 SE7       29.92F
WATERTOWN      CLOUDY    71  58  63 SE12      29.96F
BROOKINGS      CLOUDY    72  57  60 E8        29.98S
SISSETON         N/A     73  59  61 S9        29.95S
$$

SDZ017-020-022-023-036>040-048>070-020000-
SOUTHEAST SOUTH DAKOTA

CITY           SKY/WX    TMP DP  RH WIND       PRES   REMARKS
SIOUX FALLS    CLOUDY    73  63  70 E10       29.95R
HURON          CLOUDY    78  66  66 E8        29.90S
CHAMBERLAIN    SUNNY     78  66  66 SE7       29.90F
MITCHELL       MOSUNNY   77  68  73 E9        29.91F
YANKTON        PTSUNNY   75  66  73 E9        29.89S
$$

ABBREVIATIONS USED IN REMARKS
   TC - TEMPERATURE IN CELSIUS
  WCI - WIND CHILL INDEX
   HX - HEAT INDEX
  VSB - VISIBILITY



USA.gov is the U.S. government's official web portal to all federal, state and local government web resources and services.